Погода Балкашино

Погода Балкашино : погода сейчас, прогноз погоды и архив. Всё, что Вы хотите узнать о погоде Балкашино!

Поиск расширенной информации на нашем сайте:

Другие новости

Новости СМИ2

Главная страница сайта

Новости сайта

03.07.2017

Напоминаем, что на нашем специализированном сайте Метеоцентр.Азия вы можете получить высокодетализированные автоматические прогнозы погоды по пунктам России, СНГ и мира в авиационном формате (включающие направление и скорость ветра, видимость, явления погоды, количество и форму облачности, нижнюю и верхнюю границу облачности).


Погода Балкашино - сегодня

Время (UTC), дата Ветер
(°,м/с) 
Видим.   Явления Облачность Т
(°С)
Тd
(°С)
f(%) Тe
(°С)
Pmin
(гПа)
dP
(гПа)
Po
(мм)
O2
(г/м3)
Тmin Tmax R s Состояние
почвы
00 16.04.18 240 (ЮЗ) 20000 м    8/8 600 м 
[Sc]
-0.6 -3 84 -2  1009  -1.8  720  291           
06 16.04.18 250 (З) 20000 м    1/1 600 м 
[Cu hum]
+5.3 -1.3 62 +3  1008.6  0.8  721  285  -0.8         
09 16.04.18 270 (З) 20000 м    9/9 600 м 
[Cu med, cong]
+7.2 -2 52 +5  1009.1  0.8  721  283           
12 16.04.18 270 (З) 20000 м    9/6 600 м средняя 
[Cu med, cong|Ac trans]
+6.9 -2.1 53 +5  1009.8  0.6  722  284           
15 16.04.18 300 (СЗ) 20000 м    6/6 600 м кучево-дожд. 
[Cb cap]
+3.9 -2.1 65 +3  1011.4  722  287    +7.6       
18 16.04.18 240 (ЮЗ) н/о    6/6 600 м 
[Sc]
+1.5 -4.2 66 +1  1013.5  1.6  724  290    +7.6       
00 17.04.18 340 (С) 20000 м    3/0 средняя 
[Ac trans]
-4 -5.4 90 -5  1017.1  725  297           
06 17.04.18 330 (СЗ) 20000 м    3/3 600 м 
[Cu hum]
+3.2 -10.3 36 +1  1017.5  0.6  727  290  -4.5         
09 17.04.18 010 (С) 20000 м    8/8 600 м 
[Cu hum]
+3.8 -8.7 40 +2  1017.8  0.4  727  290           
12 17.04.18 320 (СЗ) 20000 м    6/6 600 м 
[Cu hum]
+3.6 -8.1 42 +1  1018.3  0.5  727  290           
15 17.04.18 350 (С) 20000 м    4/0 средняя, верхняя 
[Ac lent|Ci fib]
-1 -9.3 53 -2  1019.9  0.7  728  295    +4.5       
18 17.04.18 тихо ()   н/о    9/0 средняя 
[Ac und]
-1.4 -7.2 65 -1  1020.8  0.8  728  296    +4.5       
21 17.04.18 тихо ()   н/о    3/0 средняя 
[Ac lent]
-3.2 -5.6 83 -3  1020.6  -0.5  728  297           
00 18.04.18 тихо ()   20000 м    10/0 средняя 
[Ac und]
-2.8 -6.9 73 -3  1021.1  0.5  728  297           
06 18.04.18 тихо ()   20000 м    10/5 600 м средняя, верхняя 
[Cu hum|Ac lent|Cs]
+2.8 -6.3 51 +3  1020.5  -0.3  729  291  -3.4         
09 18.04.18 тихо ()   20000 м    10/5 600 м средняя 
[Cu hum|Ac und]
+4 -5.7 49 +4  1018.9  -1.3  728  290           
21 18.04.18 тихо ()   н/о    ясно 
-4.6 -7.7 79 -5  1020.9  0.6  728  299           
00 19.04.18 тихо ()   20000 м    ясно 
-7.3 -8.6 90 -7  1022.4  0.9  729  303           
09 19.04.18 220 (ЮЗ) 20000 м    6/4 600 м верхняя 
[Cu hum|Ci fib]
+2.6 -5.8 54 1021.1  -0.4  729  292           
12 19.04.18 210 (ЮЗ) 20000 м    8/8 600 м 
[Cu hum]
+3.3 -4.8 55 +1  1020  -0.9  729  291           
15 19.04.18 210 (ЮЗ) 20000 м    3/3 600 м 
[Sc diur, vesp]
+2 -4.7 61 +1  1018.9  -1.3  728  291    +3.4       
18 19.04.18 200 (Ю) н/о    3/3 600 м 
[Sc]
+1.2 -5 63 -2  1018  -1  727  292    +3.4       
21 19.04.18 210 (ЮЗ) н/о    8/8 600 м 
[Sc]
+1.8 -6.9 52 -1  1015.9  -1.9  725  291           
00 20.04.18 200 (Ю) 20000 м    10/10 600 м 
[Sc]
+1.8 -4.9 61 1014  -1.8  724  290           
21 20.04.18 200 (Ю) н/о    10/10 600 м 
[Sc]
+8 +1 61 +6  1007.3  -1.2  720  282           
Время (UTC), дата Ветер
(°,м/с) 
Видим.   Явления Облачность Т
(°С)
Тd
(°С)
f(%) Тe
(°С)
Pmin
(гПа)
dP
(гПа)
Po
(мм)
O2
(г/м3)
Тmin Tmax R s Состояние
почвы

Для получения пояснительной информации подведите курсор к названию столбца.

ПОГОДА Балкашино - архив

Всё, что Вы хотите узнать о погоде Балкашино - удобно и подробно!

Выберите нужную дату (начиная с 1 января 2015* года) и нажмите кнопку "Найти".
Будут отображены архивные сводки погоды по пункту Балкашино, начиная с указанной даты.


Отображать данные в формате CSV (для использования в таблицах Excel)


Внимание! Наш архив погоды предназначен исключительно для личного некоммерческого использования в познавательных целях. Если Вам необходимы официальные справки о состоянии погоды (для производственных, юридических, коммерческих и т.п. целей), обращайтесь в органы Росгидромета.

*Примечание: данная дата относится к архиву по метеостанциям СССР (Россия, СНГ, Балтия).
Архив по метеостанциям Зарубежной Европы и Азии (кроме Китая) хранится 10 дней, по другим регионам земного шара (Китай, Африка, Америка, Австралия, Океания) - 1 день.

Балкашино - район местоположения метеостанции


Название, широта, долгота, высота метеостанции:
Балкашино 52.5°ш. 68.8°д. 398 м над ур. моря [Казахстан]

Дополнительная информация

В oтличие oт бoльшинства пoгoдных сайтoв мы публикуем пoдрoбную метеoинфoрмацию в детальнoм прoфессиoнальнoм фoрмате.

Характеристики температуры и влажнoсти вoздуха измеряются на высoте 2 м в тени вдали oт зданий и деревьев.
Скoрoсть ветра измеряется на высoте 10 м (на урoвне рoста челoвека скoрoсть ветра ниже в 1.5-2 раза). Если метеoстанция нахoдится в гoрoде или в лесу, тo скoрoсть ветра занижена на 2-4 м/с пo сравнению с oткрытым местoм. Скoрoсть ветра над акватoриями крупных рек и oзёр, а также на вершинах хoлмoв на 2-5 м/с выше, чем в oбычных услoвиях.
Атмoсфернoе давление в разных тoчках местнoсти мoжет значительнo oтличаться oт давления на метеoстанции, в зависимoсти oт услoвий рельефа (при пoдъёме на 10 м давление пoнижается примернo на 1 мм рт.ст.).